Date String (YYYY-MM-DD hh:mm:ss) UTC,Instrument flags,absolute air pressure of the measurement (hPa),sample flow rate (lpm),inlet stack bypass flow (lpm),air temperature of the measurement (°C),ambient temperature measured by the external sensor (°C),aerosol sample conditioner tube jacket temperature (°C),OPC LED temperature (°C),internal box temperature (°C),relative humidity of the measurement (%),span deviation,mass concentration of particles derived from Lorenz-Mie calculation of OPC scattering (μg/m³),mass concentration of particles derived from Lorenz-Mie calculation of OPC scattering (μg/m³),mass concentration of particles derived from Lorenz-Mie calculation of OPC scattering (μg/m³)
DateTimeUTC,F1_M11,P_M11,Q1_M11,Q2_M11,T1_M11,T2_M11,T3_M11,T4_M11,T5_M11,U1_M11,ZSPAN_M11,X0_M11,X2_M11,X1_M11
2023-10-09 16:00:00,SystemResetWarning,0829.7,5.00,000.00,029.3,025.5,000.0,037.6,030.9,14.4,0000.0,0009.64,0003.54,0002.72
2023-10-09 16:01:00,SystemResetWarning,0829.7,5.01,000.00,029.2,025.6,000.0,037.6,030.7,13.9,0000.0,0009.60,0003.50,0002.72
2023-10-09 16:02:00,SystemResetWarning,0829.7,5.00,000.00,029.1,025.8,000.0,037.6,030.6,13.8,0000.0,0009.52,0003.49,0002.72
2023-10-09 16:03:00,SystemResetWarning,0829.7,5.00,000.00,029.1,026.1,000.0,037.6,030.5,14.3,0000.0,0009.11,0003.50,0002.71
2023-10-09 16:04:00,SystemResetWarning,0829.7,5.00,000.00,029.0,026.4,000.0,037.6,030.5,14.8,0000.0,0009.04,0003.49,0002.70
2023-10-09 16:05:00,SystemResetWarning,0829.7,5.00,000.00,029.0,026.7,000.0,037.6,030.5,14.7,0000.0,0008.80,0003.46,0002.70
2023-10-09 16:06:00,SystemResetWarning,0829.7,5.00,000.00,029.0,026.9,000.0,037.6,030.6,14.9,0000.0,0009.26,0003.43,0002.68
2023-10-09 16:07:00,SystemResetWarning,0829.7,4.99,000.00,029.0,027.1,000.0,037.6,030.6,15.1,0000.0,0009.76,0003.45,0002.68
2023-10-09 16:08:00,SystemResetWarning,0829.7,5.00,000.00,029.0,027.3,000.0,037.6,030.6,15.4,0000.0,0009.70,0003.44,0002.70
2023-10-09 16:09:00,SystemResetWarning,0829.7,5.00,000.00,029.1,027.4,000.0,037.6,030.6,15.6,0000.0,0009.51,0003.46,0002.71
2023-10-09 16:10:00,SystemResetWarning,0829.7,5.00,000.00,029.1,027.5,000.0,037.6,030.7,15.6,0000.0,0009.76,0003.51,0002.73
2023-10-09 16:11:00,SystemResetWarning,0829.7,5.00,000.00,029.1,027.6,000.0,037.6,030.7,15.7,0000.0,0009.82,0003.53,0002.74
2023-10-09 16:12:00,SystemResetWarning,0829.7,5.00,000.00,029.1,027.7,000.0,037.6,030.7,15.9,0000.0,0009.92,0003.53,0002.74
2023-10-09 16:13:00,SystemResetWarning,0829.7,5.01,000.00,029.1,027.8,000.0,037.6,030.8,15.5,0000.0,0010.37,0003.51,0002.73
2023-10-09 16:14:00,SystemResetWarning,0829.7,5.00,000.00,029.2,027.8,000.0,037.6,030.8,15.5,0000.0,0011.01,0003.51,0002.74
2023-10-09 16:15:00,SystemResetWarning,0829.7,5.00,000.00,029.2,027.9,000.0,037.6,030.8,15.9,0000.0,0011.23,0003.55,0002.76
2023-10-09 16:16:00,SystemResetWarning,0829.7,5.00,000.00,029.2,027.9,000.0,037.6,030.8,15.7,0000.0,0011.19,0003.59,0002.77
2023-10-09 16:17:00,SystemResetWarning,0829.6,5.00,000.00,029.2,028.0,000.0,037.6,030.9,15.6,0000.0,0012.01,0003.61,0002.79
2023-10-09 16:18:00,SystemResetWarning,0829.6,4.99,000.00,029.3,027.8,000.0,037.6,030.9,15.2,0000.0,0012.91,0003.62,0002.80
2023-10-09 16:19:00,SystemResetWarning,0829.6,4.99,000.00,029.2,026.4,000.0,037.6,030.8,15.4,0000.0,0012.86,0003.63,0002.81
2023-10-09 16:20:00,SystemResetWarning,0829.5,5.00,000.00,029.1,025.1,000.0,037.5,030.5,15.3,0000.0,0012.50,0003.63,0002.80
2023-10-09 16:21:00,SystemResetWarning,0829.5,5.01,000.00,029.0,025.0,000.0,037.4,030.4,15.3,0000.0,0011.90,0003.59,0002.80
2023-10-09 16:22:00,SystemResetWarning,0829.4,5.01,000.00,028.9,025.3,000.0,037.4,030.3,15.5,0000.0,0012.20,0003.54,0002.79
2023-10-09 16:23:00,SystemResetWarning,0829.4,4.99,000.00,028.8,025.7,000.0,037.4,030.2,15.4,0000.0,0012.09,0003.54,0002.78
2023-10-09 16:24:00,SystemResetWarning,0829.4,5.01,000.00,028.8,026.0,000.0,037.4,030.3,15.4,0000.0,0011.83,0003.56,0002.79
2023-10-09 16:25:00,SystemResetWarning,0829.4,5.01,000.00,028.8,026.3,000.0,037.4,030.3,15.6,0000.0,0011.26,0003.54,0002.78
2023-10-09 16:26:00,SystemResetWarning,0829.3,5.00,000.00,028.8,026.6,000.0,037.4,030.4,15.5,0000.0,0011.28,0003.49,0002.77
2023-10-09 16:27:00,SystemResetWarning,0829.4,4.99,000.00,028.8,026.8,000.0,037.4,030.4,15.6,0000.0,0011.11,0003.48,0002.77
2023-10-09 16:28:00,SystemResetWarning,0829.3,4.99,000.00,028.8,027.0,000.0,037.4,030.4,15.4,0000.0,0009.87,0003.47,0002.76
2023-10-09 16:29:00,SystemResetWarning,0829.3,5.00,000.00,028.8,027.2,000.0,037.4,030.5,15.3,0000.0,0008.42,0003.44,0002.74
2023-10-09 16:30:00,SystemResetWarning,0829.4,5.00,000.00,028.9,027.3,000.0,037.4,030.5,15.2,0000.0,0008.41,0003.44,0002.74
2023-10-09 16:31:00,SystemResetWarning,0829.3,5.00,000.00,028.9,027.4,000.0,037.4,030.6,15.1,0000.0,0008.33,0003.45,0002.73
2023-10-09 16:32:00,SystemResetWarning,0829.4,5.00,000.00,028.9,027.5,000.0,037.4,030.6,15.2,0000.0,0008.19,0003.43,0002.73
2023-10-09 16:33:00,SystemResetWarning,0829.4,5.01,000.00,028.9,027.6,000.0,037.4,030.6,15.5,0000.0,0007.72,0003.44,0002.71
2023-10-09 16:34:00,SystemResetWarning,0829.3,5.00,000.00,029.0,027.7,000.0,037.4,030.6,14.9,0000.0,0007.55,0003.43,0002.69
2023-10-09 16:35:00,SystemResetWarning,0829.3,4.99,000.00,029.0,027.7,000.0,037.4,030.7,14.6,0000.0,0007.81,0003.42,0002.68
2023-10-09 16:36:00,SystemResetWarning,0829.3,5.00,000.00,029.0,027.8,000.0,037.4,030.7,14.9,0000.0,0008.06,0003.45,0002.69
2023-10-09 16:37:00,SystemResetWarning,0829.3,5.00,000.00,029.0,027.9,000.0,037.4,030.7,15.1,0000.0,0008.16,0003.47,0002.69
2023-10-09 16:38:00,SystemResetWarning,0829.4,5.00,000.00,029.1,027.9,000.0,037.5,030.8,15.1,0000.0,0008.49,0003.47,0002.68
2023-10-09 16:39:00,SystemResetWarning,0829.3,5.00,000.00,029.1,027.9,000.0,037.5,030.8,15.0,0000.0,0008.84,0003.46,0002.68
2023-10-09 16:40:00,SystemResetWarning,0829.3,5.00,000.00,029.1,026.8,000.0,037.4,030.8,15.0,0000.0,0009.82,0003.49,0002.71
2023-10-09 16:41:00,SystemResetWarning,0829.4,5.00,000.00,029.0,025.1,000.0,037.4,030.5,15.0,0000.0,0010.89,0003.50,0002.70
2023-10-09 16:42:00,SystemResetWarning,0829.3,5.00,000.00,028.9,024.8,000.0,037.3,030.4,14.9,0000.0,0012.03,0003.51,0002.70
2023-10-09 16:43:00,SystemResetWarning,0829.3,5.01,000.00,028.8,025.1,000.0,037.3,030.3,14.8,0000.0,0012.29,0003.50,0002.69
2023-10-09 16:44:00,SystemResetWarning,0829.3,5.00,000.00,028.8,025.4,000.0,037.3,030.2,15.0,0000.0,0013.42,0003.52,0002.70
2023-10-09 16:45:00,SystemResetWarning,0829.3,5.00,000.00,028.7,025.8,000.0,037.3,030.2,15.1,0000.0,0013.65,0003.54,0002.72
2023-10-09 16:46:00,SystemResetWarning,0829.3,5.00,000.00,028.7,026.1,000.0,037.3,030.3,15.1,0000.0,0014.04,0003.56,0002.72
2023-10-09 16:47:00,SystemResetWarning,0829.3,5.00,000.00,028.7,026.4,000.0,037.3,030.3,14.8,0000.0,0014.55,0003.56,0002.71
2023-10-09 16:48:00,SystemResetWarning,0829.3,5.01,000.00,028.7,026.7,000.0,037.3,030.4,14.8,0000.0,0014.69,0003.56,0002.71
2023-10-09 16:49:00,SystemResetWarning,0829.3,4.99,000.00,028.7,026.9,000.0,037.3,030.4,14.7,0000.0,0014.88,0003.58,0002.72
2023-10-09 16:50:00,SystemResetWarning,0829.3,4.99,000.00,028.8,027.1,000.0,037.3,030.4,15.0,0000.0,0014.88,0003.61,0002.74
2023-10-09 16:51:00,SystemResetWarning,0829.3,5.00,000.00,028.8,027.2,000.0,037.3,030.5,15.0,0000.0,0014.70,0003.64,0002.74
2023-10-09 16:52:00,SystemResetWarning,0829.2,5.01,000.00,028.8,027.4,000.0,037.3,030.5,14.6,0000.0,0014.41,0003.67,0002.75
2023-10-09 16:53:00,SystemResetWarning,0829.2,5.00,000.00,028.8,027.5,000.0,037.3,030.5,14.6,0000.0,0014.91,0003.66,0002.75
2023-10-09 16:54:00,SystemResetWarning,0829.2,5.00,000.00,028.9,027.6,000.0,037.3,030.6,14.6,0000.0,0014.16,0003.66,0002.75
2023-10-09 16:55:00,SystemResetWarning,0829.2,5.00,000.00,028.9,027.7,000.0,037.3,030.6,14.6,0000.0,0013.49,0003.70,0002.77
2023-10-09 16:56:00,SystemResetWarning,0829.2,4.99,000.00,028.9,027.8,000.0,037.3,030.7,14.4,0000.0,0012.90,0003.69,0002.79
2023-10-09 16:57:00,SystemResetWarning,0829.2,5.00,000.00,029.0,027.8,000.0,037.4,030.7,14.5,0000.0,0013.33,0003.69,0002.81
2023-10-09 16:58:00,SystemResetWarning,0829.1,5.00,000.00,029.0,027.6,000.0,037.4,030.8,14.9,0000.0,0013.23,0003.70,0002.83
2023-10-09 16:59:00,SystemResetWarning,0829.1,4.99,000.00,029.0,026.1,000.0,037.3,030.6,14.8,0000.0,0012.71,0003.75,0002.86
